Showing default

BEIDOU 3M9, 43581

Orbit data source: Space-Track

BEIDOU 3M9, 43581 is a payload satellite owned by CNSA (CN) in MEO that was launched on Sun, 29 Jul 2018 UTC via a CHANG ZHENG 3B/YZ-1 launch vehicle from the Xichang Space Center, China (XSC). Payload-class satellites include a variety of spacecraft equipped with specific instruments for various scientific and technological missions. These include communications satellites like Starlink; space stations such as the ISS; scientific satellites like the Hubble; Earth observation satellites from companies like Planet Labs, Umbra, and HawkEye 360; GPS; miniature CubeSats for education and research; and military/defense satellites.

Loading next visibility...
Identifier
43581, 2018-062A
Orbit
MEO
Country
Flag of CNCN / PRC
Related business
Manufacturer
CAST
Mission
Operational Defense Navigation
Bus & Motor
BD-3M, Unknown motor
Mass
1,014 kg wet, ~850 kg dry
Launch date (UTC)
2018-07-29 (7 years ago)
Launch vehicle
CHANG ZHENG 3B/YZ-1
Launch site
Xichang Space Center, China (XSC)
Object type
Payload
Rocket body
Debris
Shape & HBR
Box + 2 Pan, 5.0 m
Radar Cross Section
8.984 m², Large (>1 m²)

Expand to show TLE details & history
Last TLE update: 1 day ago

TLE from 1 day ago
0 BEIDOU 3M9
1 43581U 18062A   25295.77270380  .00000031  00000-0  00000-0 0  9999
2 43581  54.0905 190.3778 0002958 321.1609  38.8984  1.86228874 49219
Epoch: 2025-10-22T18:32Z
TLE epoch observation values (Epoch: 2025-10-22T18:32:41.608Z)
Latitude
-0.00001°
Longitude
-119.23356°
Altitude
21,522.088 km
Speed
3.78 km/s
True Right ascension
12h 41m 31s
True Declination
0° 00' 00"
Sunlit
Object was in daylight at epoch
Visualization orbit readout
Latitude
Unknown
Longitude
Unknown
Altitude
Unknown
Speed
Unknown
Apparent Right ascension
Unknown
Apparent Declination
Unknown
Sunlit
N/A
Visualization observer readout
Local Sidereal Time
18:41:50
Azimuth
Unknown
Elevation
Unknown
Doppler factor
Unknown
Orbital elements
Apogee altitude
21,536.561 km
Perigee altitude
21,520.052 km
Semi-major axis
27,906.443 km
Eccentricity
0.0003
Inclination
54.0905°
RAAN
190.3778°
Arg. of periapsis
321.1609°
True anomaly
38.91969°
Mean anomaly
38.8984°
Eccentric anomaly
38.90904°
Mean motion
0.46557 °/min
Orbital period
773.24 mins
BSTAR
0
Loading maneuver chart data...
Computing Atmospheric mass density...
Loading historical data...
Loading historical data...
Loading historical data...
Loading historical data...
Loading historical data...
Loading historical data...
Loading historical data...
Other satellites on launch #62 in the year 2018 (2018-07-29 UTC)

Documentation

Showing up to 5 results
|